CW9804 Weather Reports


time (UTC)temp
C
wind
direction
speed
KPH
gust
KPH
rain 1hr
cm
rain 24hr
cm
rain mn
cm
humidity
%
barometer
mb
20260906033412 16 248 0.0 0.0 0.00 0.00 0.00 93 1025.3
20260906031912 16 248 0.0 0.0 0.00 0.00 0.00 92 1025.4
20260906030411 16 248 0.0 0.0 0.00 0.00 0.00 92 1025.1
20260906024911 16 248 0.0 0.0 0.00 0.00 0.00 92 1025.1
20260906023411 16 248 0.0 0.0 0.00 0.00 0.00 91 1024.9
20260906021911 16 248 0.0 0.0 0.00 0.00 0.00 91 1024.7
20260906020411 16 248 0.0 0.0 0.00 0.00 0.00 91 1024.9
20260906014911 17 248 0.0 0.0 0.00 0.00 0.00 91 1024.6
20260906013411 16 248 0.0 0.0 0.00 0.00 0.00 91 1024.7
20260906011911 17 248 0.0 0.0 0.00 0.00 0.00 90 1024.7
20260906010411 16 248 0.0 0.0 0.00 0.00 0.00 90 1024.4
20260906004911 16 248 0.0 0.0 0.00 0.00 0.00 90 1024.4
20260906003411 17 248 0.0 0.0 0.00 0.00 0.00 90 1024.3
20260906001910 17 248 0.0 0.0 0.00 0.00 0.00 90 1024.2
20260906000411 17 248 0.0 0.0 0.00 0.00 0.00 89 1024.3
20260905234912 17 248 0.0 0.0 0.00 0.00 0.00 89 1024.2
20260905233411 17 248 0.0 0.0 0.00 0.00 0.00 88 1024.1
20260905231912 17 248 0.0 0.0 0.00 0.00 0.00 87 1024.0
20260905230411 17 248 0.0 0.0 0.00 0.00 0.00 89 1023.9
20260905224911 17 248 0.0 0.0 0.00 0.00 0.00 89 1023.8
20260905223411 17 248 0.0 0.0 0.00 0.00 0.00 88 1023.8
20260905221911 17 248 0.0 0.0 0.00 0.00 0.00 88 1023.8
20260905220411 17 248 0.0 0.0 0.00 0.00 0.00 88 1023.7
20260905214912 17 248 0.0 0.0 0.00 0.00 0.00 87 1024.0
20260905213412 17 247 0.0 0.0 0.00 0.00 0.00 86 1023.7
20260905211912 17 247 0.0 0.0 0.00 0.00 0.00 85 1023.8
20260905210412 18 247 0.0 0.0 0.00 0.00 0.00 86 1023.8
20260905204911 18 247 0.0 0.0 0.00 0.00 0.00 89 1023.9
20260905203411 18 247 0.0 0.0 0.00 0.00 0.00 88 1023.9
20260905201911 18 247 1.6 3.2 0.00 0.00 0.00 89 1023.7
20260905200411 18 247 0.0 0.0 0.00 0.00 0.00 87 1023.4
20260905194911 18 247 0.0 4.8 0.00 0.00 0.00 88 1023.3
20260905193411 18 254 3.2 8.0 0.00 0.00 0.00 88 1023.3
20260905191911 18 246 3.2 3.2 0.00 0.00 0.00 86 1022.7
20260905190411 19 245 1.6 6.4 0.00 0.00 0.00 86 1022.6
20260905184911 19 244 0.0 3.2 0.00 0.00 0.00 85 1022.3
20260905183410 20 244 0.0 6.4 0.00 0.00 0.00 85 1022.1
20260905181910 22 149 3.2 4.8 0.00 0.00 0.00 67 1021.0
20260905180410 20 297 0.0 6.4 0.00 0.00 0.00 86 1021.9
20260905174911 20 289 4.8 6.4 0.00 0.00 0.00 85 1021.5
20260905173411 20 285 1.6 3.2 0.00 0.00 0.00 84 1021.1
20260905171911 20 285 3.2 6.4 0.00 0.00 0.00 84 1021.1
20260905170411 20 284 1.6 3.2 0.00 0.00 0.00 83 1020.8
20260905164911 20 284 0.0 0.0 0.00 0.00 0.00 81 1020.7
20260905163411 21 284 1.6 3.2 0.00 0.00 0.00 80 1020.7
20260905161910 21 284 4.8 6.4 0.00 0.00 0.00 78 1020.8
20260905160410 21 315 3.2 6.4 0.00 0.00 0.00 73 1020.7
20260905154910 21 324 1.6 4.8 0.00 0.00 0.00 72 1020.7
20260905153410 22 90 0.0 3.2 0.00 1.73 0.00 71 1020.6
20260905151910 22 90 1.6 3.2 0.00 0.00 0.00 69 1020.5
20260905150410 22 90 1.6 3.2 0.00 0.00 0.00 67 1020.7
20260905144910 22 90 3.2 6.4 0.00 0.00 0.00 67 1020.8
20260905143410 22 116 0.0 6.4 0.00 0.00 0.00 67 1020.9
20260905141910 22 81 1.6 4.8 0.00 0.00 0.00 68 1021.2
20260905140410 22 85 3.2 8.0 0.00 0.00 0.00 66 1021.2
20260905134910 21 53 4.8 9.7 0.00 0.00 0.00 69 1021.3
20260905133410 21 83 3.2 16.1 0.00 0.00 0.00 70 1021.3
20260905131910 23 46 12.9 25.7 0.00 0.00 0.00 61 1021.4
20260905130410 25 33 8.0 16.1 0.00 0.00 0.00 52 1020.8
20260905124911 26 47 8.0 22.5 0.00 0.00 0.00 49 1020.6
20260905123410 26 44 12.9 22.5 0.00 0.00 0.00 49 1020.5
20260905081910 25 297 1.6 8.0 0.00 0.00 0.00 66 1018.4
20260905080410 25 279 1.6 9.7 0.00 0.00 0.00 67 1018.1
20260905074910 24 257 4.8 6.4 0.00 0.00 0.00 68 1017.9
20260905073410 24 295 4.8 8.0 0.00 0.00 0.00 70 1017.9
20260905071910 23 257 6.4 11.3 0.00 0.00 0.00 70 1017.6
20260905070410 23 292 4.8 12.9 0.00 0.00 0.00 71 1017.5
20260905064914 22 292 4.8 9.7 0.00 0.00 0.00 74 1017.6
20260905063414 21 253 0.0 1.6 0.00 0.00 0.00 77 1017.5
20260905061914 21 253 3.2 4.8 0.00 0.00 0.00 78 1017.4
20260905060414 21 252 0.0 0.0 0.00 0.00 0.00 79 1017.4
20260905054913 20 252 0.0 0.0 0.00 0.00 0.00 80 1017.3
20260905053413 20 252 0.0 0.0 0.00 0.00 0.00 80 1017.3
20260905051913 19 252 0.0 4.8 0.00 0.00 0.00 81 1017.0
20260905050413 19 253 4.8 6.4 0.00 0.00 0.00 79 1016.7
20260905044913 20 231 0.0 4.8 0.00 0.00 0.00 79 1016.5
20260905043413 19 234 4.8 6.4 0.00 0.00 0.00 80 1016.7
20260905041913 19 305 0.0 0.0 0.00 0.00 0.00 80 1016.6